Home > Time Zones > World Clock > Weather > Ghana > Accra > Past weeks

Flag for Ghana Weather past 2 weeks in Accra, Ghana

Now
81 °F

Sunny.


Feels Like: 85 °F
Forecast: N/A
Wind: 20 mph from Southwest

Location: Accra Airport

Current Time: Sep 5, 2015 at 4:50:14 PM

Latest Report: Sep 5, 2015 at 4:00 PM


Visibility: 10 mi

Pressure: 29.89 "Hg

Humidity: 74%

Dew point: 72 °F

Location of AccraLocation

Historic Weather in Accra — Graph

°F

Accra temperature yesterday

Maximum temperature yesterday: 84 °F (at 12:00 PM)
Minimum temperature yesterday: 75 °F (at 4:49 AM)
Average temperature yesterday: 79 °F

Past Weeks' High & Low Weather Summary

 TemperatureHumidityPressure
High84 °F (Aug 23, 12:00 PM)94% (Aug 21, 8:00 PM)30.07 "Hg (Aug 21, 8:00 PM)
Low73 °F (Aug 23, 5:46 AM)62% (Sep 1, 1:00 PM)29.83 "Hg (Aug 23, 3:00 PM)
Average78 °F83%29.94 "Hg
* Reported Aug 21 4:00 PM — Sep 5 3:00 PM, Accra, Weather by CustomWeather, © 2015

Note: Actual official high and low records may vary slightly from our data, if they occured in-between our weather recording intervals... More about our weather records

Advertising

Accra weather history for previous 24 hours

 ConditionsComfort  
Time TempWeatherWind HumidityBarometerVisibility
3:00 PM
Sat, Sep 5
82 °FSunny.22 mph70%29.89 "Hg10 mi
2:00 PM82 °FPartly sunny.18 mph70%29.89 "HgN/A
1:00 PM82 °FMostly cloudy.16 mph70%29.92 "HgN/A
12:00 PM82 °FPartly sunny.14 mph70%29.95 "HgN/A
11:00 AM84 °FOvercast.14 mph66%29.98 "HgN/A
10:00 AM81 °FPartly sunny.15 mph74%29.98 "HgN/A
9:00 AM81 °FScattered clouds.15 mph79%29.98 "HgN/A
8:00 AM77 °FScattered clouds.13 mph89%29.98 "HgN/A
7:00 AM77 °FPassing clouds.12 mph83%29.95 "HgN/A
11:00 PM
Fri, Sep 4
77 °FMostly cloudy.12 mph89%29.98 "HgN/A
10:00 PM77 °FMostly cloudy.12 mph89%29.98 "HgN/A
9:00 PM77 °FOvercast.13 mph89%29.95 "HgN/A
8:00 PM77 °FPassing clouds.15 mph89%29.92 "HgN/A
7:00 PM77 °FPassing clouds.16 mph89%29.92 "HgN/A
6:00 PM79 °FPartly sunny.16 mph84%29.89 "HgN/A
5:00 PM79 °FPassing clouds.17 mph84%29.89 "HgN/A
4:00 PM82 °FSunny.17 mph74%29.89 "Hg10 mi
Weather by CustomWeather, © 2015

See weather overviewHow to use our weather pages